Voltar ao catálogo

STARLINK-4740

AtivoComunicaçõesVLEO
NORAD 53871·PAYLOAD·🇺🇸 United States

Lançado Sep 19, 2022 de Cape Canaveral Space Force Station

Loading…

Próximas Passagens (próximas 24 horas)

TLE

AtualizadoSource: CelesTrak SupGP

Época: Sep 15, 2026, 02:03 UTC

1 53871C 22114BF  26258.08590278  .00048709  00000+0  14390-2 0  2580
2 53871  53.1574 118.9625 0001415  82.3154  95.2594 15.34368442    12

Acompanhe STARLINK-4740 em tempo real com AllMySat

Download on the App Store